Weather History for KLMT - March, 2014

Change the Weather History Date:

Sunday, March 9, 2014

  Actual Average Record
Temperature  
Mean Temperature 50 °F 38 °F  
Max Temperature 55 °F 50 °F 69 °F (2015)
Min Temperature 44 °F 26 °F 10 °F (2010)
Degree Days  
Heating Degree Days 15 27  
Month to date heating degree days 175 248  
Since 1 July heating degree days 4958 5089  
Cooling Degree Days 0 0  
Month to date cooling degree days 0 0  
Year to date cooling degree days 0 0  
Moisture  
Dew Point 42 °F    
Average Humidity 83    
Maximum Humidity 89    
Minimum Humidity 61    
Precipitation  
Precipitation 0.11 in 0.02 in 0.47 in (1954)
Month to date precipitation 0.86 0.37  
Year to date precipitation 3.51 4.14  
Sea Level Pressure  
Sea Level Pressure 30.03 in    
Wind  
Wind Speed 12 mph (South)    
Max Wind Speed 18 mph    
Max Gust Speed 24 mph    
Visibility 10 miles    
Events Rain    
T = Trace of Precipitation, MM = Missing Value Source: NWS Daily Summary

Daily Weather History Graph

Daily Weather History Graph

Search for Another Location

Airport or City:

Trip Planner

Search our weather history database for the weather conditions in past years. The results will help you decide how hot, cold, wet, or windy it might be!

Date:

Astronomy

Mar. 09, 2014 Rise Set
Actual Time 7:28 AM PDT 7:06 PM PDT
Civil Twilight 7:00 AM PDT 7:34 PM PDT
Nautical Twilight 6:28 AM PDT 8:06 PM PDT
Astronomical Twilight 5:55 AM PDT 8:39 PM PDT
Moon 12:59 PM PDT (3/9) 3:03 AM PDT (3/9)
Length of Visible Light 12h 33m
Length of Day
11h 37m
First Quarter, 62% of the Moon is Illuminated
Mar 9
First Quarter
Mar 16
Full
Mar 23
Last Quarter
Mar 30
New
Apr 7
First Quarter

Hourly Weather History & Observations

Time (PDT) Temp. Windchill Dew Point Humidity Pressure Visibility Wind Dir Wind Speed Gust Speed Precip Events Conditions
12:53 AM 48.0 °F - 37.0 °F 66% 30.09 in 10.0 mi SSE 12.7 mph - N/A   Overcast
1:53 AM 46.9 °F - 37.9 °F 71% 30.08 in 10.0 mi SSE 11.5 mph - N/A   Overcast
3:53 AM 48.0 °F - 37.9 °F 68% 30.06 in 10.0 mi South 12.7 mph - N/A   Overcast
4:53 AM 46.9 °F - 39.9 °F 77% 30.04 in 10.0 mi SSE 12.7 mph - 0.00 in Rain Light Rain
5:53 AM 46.9 °F - 39.0 °F 74% 30.05 in 10.0 mi SSE 11.5 mph - 0.00 in Rain Light Rain
6:53 AM 46.0 °F 41.9 °F 39.9 °F 79% 30.07 in 10.0 mi South 8.1 mph - 0.00 in Rain Light Rain
7:53 AM 45.0 °F 41.8 °F 41.0 °F 86% 30.09 in 10.0 mi South 5.8 mph - 0.03 in Rain Light Rain
8:53 AM 46.9 °F - 42.1 °F 83% 30.08 in 10.0 mi SSE 16.1 mph - 0.00 in   Overcast
9:53 AM 50.0 °F - 42.1 °F 74% 30.08 in 10.0 mi South 16.1 mph - N/A   Mostly Cloudy
10:53 AM 51.1 °F - 43.0 °F 74% 30.08 in 10.0 mi SSE 13.8 mph - N/A   Mostly Cloudy
11:53 AM 54.0 °F - 43.0 °F 66% 30.08 in 10.0 mi SSE 15.0 mph - N/A   Overcast
12:53 PM 54.0 °F - 42.1 °F 64% 30.06 in 10.0 mi SSE 15.0 mph - N/A   Overcast
1:53 PM 52.0 °F - 44.1 °F 74% 30.06 in 6.0 mi SSE 11.5 mph - 0.01 in Rain Rain
2:11 PM 51.1 °F - 46.0 °F 83% 30.09 in 9.0 mi SSE 11.5 mph - 0.01 in Rain Light Rain
2:22 PM 51.1 °F - 46.9 °F 86% 30.09 in 9.0 mi SSE 10.4 mph - 0.02 in Rain Light Rain
2:53 PM 51.1 °F - 46.9 °F 86% 30.04 in 10.0 mi SSE 10.4 mph - 0.03 in Rain Light Rain
3:53 PM 50.0 °F - 46.9 °F 89% 30.04 in 8.0 mi South 10.4 mph - 0.03 in Rain Light Rain
4:53 PM 50.0 °F - 46.0 °F 86% 30.01 in 10.0 mi South 12.7 mph - 0.01 in Rain Light Rain
5:53 PM 48.0 °F - 44.1 °F 86% 30.00 in 10.0 mi SSE 10.4 mph - 0.03 in Rain Light Rain
6:53 PM 46.9 °F - 44.1 °F 90% 30.00 in 7.0 mi SSE 6.9 mph - 0.03 in Rain Light Rain
7:53 PM 46.0 °F 40.2 °F 43.0 °F 89% 29.99 in 10.0 mi SSE 12.7 mph - 0.02 in Rain Light Rain
8:53 PM 46.0 °F 40.2 °F 43.0 °F 89% 29.98 in 10.0 mi South 12.7 mph - 0.01 in Rain Light Rain
9:53 PM 45.0 °F 40.1 °F 42.1 °F 90% 29.97 in 10.0 mi South 9.2 mph - 0.01 in Rain Light Rain
10:21 PM 45.0 °F 39.3 °F 43.0 °F 93% 30.01 in 10.0 mi SSE 11.5 mph - 0.01 in Rain Light Rain
10:44 PM 45.0 °F 41.2 °F 43.0 °F 93% 30.01 in 9.0 mi South 6.9 mph - 0.03 in Rain Light Rain
10:53 PM 46.0 °F 43.1 °F 43.0 °F 89% 29.97 in 10.0 mi South 5.8 mph - 0.03 in Rain Light Rain
11:26 PM 45.0 °F 40.1 °F 43.0 °F 93% 30.00 in 10.0 mi South 9.2 mph - 0.03 in Rain Light Rain
11:33 PM 45.0 °F 41.2 °F 43.0 °F 93% 30.00 in 10.0 mi South 6.9 mph - 0.04 in Rain Light Rain
11:46 PM 45.0 °F 40.1 °F 42.1 °F 90% 30.00 in 10.0 mi SSW 9.2 mph - 0.04 in Rain Light Rain
11:53 PM 44.1 °F 38.6 °F 41.0 °F 89% 29.96 in 10.0 mi South 10.4 mph - 0.04 in Rain Light Rain
12:04 AM 44.1 °F 39.5 °F 41.0 °F 89% 30.00 in 9.0 mi SSW 8.1 mph - 0.01 in Rain Light Rain
12:53 AM 43.0 °F 36.0 °F 37.9 °F 82% 29.96 in 10.0 mi West 13.8 mph - 0.08 in Rain Light Rain